This is the latest recevied weather packets stored in our database for station/object KG5MMT-15. If no packets are shown the sender has not sent any weather packets the latest 10 day(s).
| Time | Temp. | Humidity | Pressure | Rain* | Wind** | Luminosity | Snow |
|---|---|---|---|---|---|---|---|
| 1777743444 | 11.67° C | 31% | 0 hPa | 0 mm | - | - | - |
| 1777743144 | 11.67° C | 33% | 0 hPa | 0 mm | - | - | - |
| 1777742844 | 12.22° C | 30% | 0 hPa | 0 mm | - | - | - |
| 1777742544 | 11.67° C | 29% | 0 hPa | 0 mm | - | - | - |
| 1777742244 | 11.67° C | 29% | 0 hPa | 0 mm | - | - | - |
| 1777741944 | 12.22° C | 29% | 0 hPa | 0 mm | - | - | - |
| 1777741644 | 12.22° C | 29% | 0 hPa | 0 mm | - | - | - |
| 1777741344 | 11.67° C | 29% | 0 hPa | 0 mm | - | - | - |
| 1777741044 | 11.67° C | 29% | 0 hPa | 0 mm | - | - | - |
| 1777740744 | 11.67° C | 29% | 0 hPa | 0 mm | - | - | - |
| 1777740444 | 11.67° C | 32% | 0 hPa | 0 mm | - | - | - |
| 1777740144 | 11.67° C | 29% | 0 hPa | 0 mm | - | - | - |
| 1777739844 | 11.11° C | 32% | 0 hPa | 0 mm | - | - | - |
| 1777739544 | 11.67° C | 35% | 0 hPa | 0 mm | - | - | - |
| 1777739244 | 11.11° C | 32% | 0 hPa | 0 mm | - | - | - |
| 1777738944 | 11.11° C | 33% | 0 hPa | 0 mm | - | - | - |
| 1777738644 | 11.11° C | 33% | 0 hPa | 0 mm | - | - | - |
| 1777738344 | 10.56° C | 34% | 0 hPa | 0 mm | - | - | - |
| 1777738044 | 10° C | 34% | 0 hPa | 0 mm | - | - | - |
| 1777737744 | 10.56° C | 35% | 0 hPa | 0 mm | - | - | - |
| 1777737444 | 10.56° C | 35% | 0 hPa | 0 mm | - | - | - |
| 1777737144 | 10° C | 35% | 0 hPa | 0 mm | - | - | - |
| 1777736844 | 10.56° C | 35% | 0 hPa | 0 mm | - | - | - |
| 1777736544 | 10.56° C | 32% | 0 hPa | 0 mm | - | - | - |
| 1777736244 | 10° C | 36% | 0 hPa | 0 mm | - | - | - |
* Rain latest hour (hover to see other rain measurements)
** Current wind speed in m/s (hover to see current wind gust speed)